Weather History for Middletown, PA

Change the Weather History Date:

Sunday, December 8, 2013

  Actual Average Record
Temperature  
Mean Temperature 27 °F 36 °F  
Max Temperature 29 °F 44 °F 68 °F (1980)
Min Temperature 24 °F 28 °F 12 °F (2002)
Degree Days  
Heating Degree Days 38 29  
Month to date heating degree days 216 225  
Since 1 July heating degree days 1269 1264  
Cooling Degree Days 0 0  
Month to date cooling degree days 0 0  
Year to date cooling degree days 1105 1002  
Moisture  
Dew Point 21 °F    
Average Humidity 73    
Maximum Humidity 92    
Minimum Humidity 53    
Precipitation  
Precipitation 0.20 in 0.11 in 1.25 in (1917)
Month to date precipitation 1.33 0.93  
Year to date precipitation 40.22 38.44  
Snow  
Snow 1.80 in - - ()
Month to date snowfall 1.8  
Since 1 July snowfall 1.8  
Snow Depth 0.00 in    
Sea Level Pressure  
Sea Level Pressure 30.48 in    
Wind  
Wind Speed 4 mph (East)    
Max Wind Speed 10 mph    
Max Gust Speed 13 mph    
Visibility 4 miles    
Events Fog , Rain , Snow    
T = Trace of Precipitation, MM = Missing Value Source: NWS Daily Summary

Daily Weather History Graph

Daily Weather History Graph

Search for Another Location

Airport:

Trip Planner

Search our weather history database for the weather conditions in past years. The results will help you decide how hot, cold, wet, or windy it might be!

Date:

Astronomy

Dec. 08, 2013 Rise Set
Actual Time 7:17 AM EST 4:41 PM EST
Civil Twilight 6:46 AM EST 5:11 PM EST
Nautical Twilight 6:12 AM EST 5:45 PM EST
Astronomical Twilight 5:39 AM EST 6:18 PM EST
Moon 11:35 AM EST (12/8) 11:28 PM EST (12/8)
Length of Visible Light 10h 24m
Length of Day
9h 24m
Waxing Crescent, 40% of the Moon is Illuminated
Dec 8
Waxing Crescent
Dec 9
First Quarter
Dec 17
Full
Dec 25
Last Quarter
Jan 1
New

Hourly Weather History & Observations

Time (EST) Temp. Windchill Dew Point Humidity Pressure Visibility Wind Dir Wind Speed Gust Speed Precip Events Conditions
12:56 AM 26.1 °F 17.6 °F 16.0 °F 66% 30.57 in 10.0 mi NW 8.1 mph - N/A   Mostly Cloudy
1:56 AM 25.0 °F 18.1 °F 15.1 °F 66% 30.57 in 10.0 mi NNW 5.8 mph - N/A   Mostly Cloudy
2:56 AM 25.0 °F 19.3 °F 14.0 °F 63% 30.58 in 10.0 mi NNW 4.6 mph - N/A   Scattered Clouds
3:56 AM 25.0 °F - 14.0 °F 63% 30.57 in 10.0 mi Calm Calm - N/A   Mostly Cloudy
4:56 AM 26.1 °F 21.9 °F 14.0 °F 60% 30.57 in 10.0 mi NNW 3.5 mph - N/A   Overcast
5:56 AM 26.1 °F - 14.0 °F 60% 30.58 in 10.0 mi Calm Calm - N/A   Overcast
6:56 AM 26.1 °F - 14.0 °F 60% 30.58 in 10.0 mi Calm Calm - N/A   Overcast
7:56 AM 27.0 °F 23.0 °F 14.0 °F 58% 30.58 in 10.0 mi NNE 3.5 mph - N/A   Overcast
8:56 AM 27.0 °F 21.6 °F 14.0 °F 58% 30.57 in 10.0 mi NNE 4.6 mph - N/A   Overcast
9:56 AM 28.0 °F - 14.0 °F 56% 30.58 in 10.0 mi Calm Calm - N/A   Overcast
10:56 AM 28.0 °F 20.8 °F 14.0 °F 56% 30.58 in 10.0 mi East 6.9 mph - N/A   Overcast
11:56 AM 27.0 °F 19.5 °F 19.0 °F 72% 30.56 in 2.0 mi SSE 6.9 mph - 0.00 in Snow Light Snow
12:02 PM 26.6 °F 21.2 °F 19.4 °F 74% 30.54 in 1.5 mi SSE 4.6 mph - 0.00 in Snow Light Snow
12:47 PM 26.6 °F - 21.2 °F 80% 30.52 in 0.5 mi Calm Calm - 0.01 in Snow Snow
12:56 PM 26.1 °F 20.5 °F 21.9 °F 84% 30.53 in 0.5 mi East 4.6 mph - 0.01 in Fog , Snow Snow
1:09 PM 26.6 °F 21.2 °F 21.2 °F 80% 30.51 in 0.5 mi ESE 4.6 mph - 0.01 in Fog , Snow Snow
1:36 PM 26.6 °F 19.1 °F 21.2 °F 80% 30.49 in 0.5 mi ESE 6.9 mph - 0.02 in Fog , Snow Snow
1:51 PM 26.6 °F 19.1 °F 21.2 °F 80% 30.48 in 0.8 mi East 6.9 mph - 0.03 in Snow Light Snow
1:56 PM 26.1 °F 19.4 °F 21.9 °F 84% 30.49 in 1.0 mi East 5.8 mph - 0.03 in Snow Light Snow
2:15 PM 26.6 °F 20.0 °F 21.2 °F 80% 30.47 in 0.5 mi East 5.8 mph - 0.00 in Fog , Snow Snow
2:27 PM 26.6 °F 21.2 °F 21.2 °F 80% 30.48 in 1.0 mi ESE 4.6 mph - 0.01 in Snow Light Snow
2:42 PM 26.6 °F 21.2 °F 21.2 °F 80% 30.48 in 0.8 mi ESE 4.6 mph - 0.01 in Snow Light Snow
2:56 PM 26.1 °F 20.5 °F 21.9 °F 84% 30.51 in 0.5 mi ESE 4.6 mph - 0.03 in Fog , Snow Snow
3:14 PM 26.6 °F 21.2 °F 23.0 °F 86% 30.49 in 0.2 mi ESE 4.6 mph - 0.01 in Fog , Snow Heavy Snow
3:26 PM 26.6 °F 19.1 °F 21.2 °F 80% 30.48 in 0.5 mi ESE 6.9 mph - 0.02 in Fog , Snow Snow
3:56 PM 26.1 °F 20.5 °F 23.0 °F 88% 30.51 in 0.5 mi ESE 4.6 mph - 0.04 in Fog , Snow Snow
4:08 PM 26.6 °F 21.2 °F 23.0 °F 86% 30.47 in 0.5 mi ESE 4.6 mph - 0.00 in Snow Light Snow
4:12 PM 26.6 °F 22.6 °F 23.0 °F 86% 30.48 in 1.0 mi SE 3.5 mph - 0.00 in Snow Light Snow
4:41 PM 26.6 °F 21.2 °F 23.0 °F 86% 30.46 in 1.0 mi ESE 4.6 mph - 0.02 in Snow Light Snow
4:56 PM 26.1 °F - 23.0 °F 88% 30.48 in 2.0 mi Calm Calm - 0.02 in Snow Light Snow
5:30 PM 26.6 °F 22.6 °F 23.0 °F 86% 30.44 in 4.0 mi East 3.5 mph - 0.00 in Snow Light Snow
5:42 PM 26.6 °F - 23.0 °F 86% 30.46 in 4.0 mi Calm Calm - 0.00 in Snow Light Snow
5:56 PM 26.1 °F - 23.0 °F 88% 30.48 in 3.0 mi Calm Calm - 0.00 in Snow Light Snow
6:09 PM 26.6 °F - 23.0 °F 86% 30.45 in 3.0 mi Calm Calm - 0.00 in Snow Light Ice Pellets
6:30 PM 26.6 °F 20.0 °F 23.0 °F 86% 30.43 in 3.0 mi East 5.8 mph - 0.01 in Snow Light Ice Pellets
6:47 PM 26.6 °F 20.0 °F 23.0 °F 86% 30.43 in 3.0 mi ESE 5.8 mph - 0.01 in Snow Light Snow
6:56 PM 26.1 °F 19.4 °F 23.0 °F 88% 30.46 in 3.0 mi East 5.8 mph - 0.01 in Snow Light Ice Pellets
7:07 PM 26.6 °F 16.8 °F 23.0 °F 86% 30.42 in 2.5 mi ESE 10.4 mph - 0.01 in Snow Light Ice Pellets
7:24 PM 26.6 °F 19.1 °F 24.8 °F 93% 30.43 in 2.0 mi ESE 6.9 mph - 0.02 in   Light Ice Pellets
7:39 PM 26.6 °F 21.2 °F 24.8 °F 93% 30.42 in 2.0 mi East 4.6 mph - 0.02 in Rain Light Freezing Rain
7:56 PM 27.0 °F 20.5 °F 24.1 °F 89% 30.43 in 2.0 mi ESE 5.8 mph - 0.02 in   Light Freezing Drizzle
8:13 PM 26.6 °F 19.1 °F 24.8 °F 93% 30.39 in 1.5 mi ESE 6.9 mph - 0.00 in   Light Freezing Drizzle
8:56 PM 27.0 °F 19.5 °F 25.0 °F 92% 30.38 in 1.5 mi ESE 6.9 mph - 0.01 in   Light Freezing Drizzle
9:56 PM 28.0 °F - 26.1 °F 92% 30.42 in 1.2 mi Calm Calm - 0.02 in   Light Freezing Drizzle
10:21 PM 28.4 °F 21.2 °F 26.6 °F 93% 30.37 in 1.5 mi East 6.9 mph - 0.01 in   Light Freezing Drizzle
10:56 PM 28.0 °F 22.8 °F 26.1 °F 92% 30.37 in 2.0 mi ENE 4.6 mph - 0.01 in   Light Freezing Drizzle
11:19 PM 28.4 °F 22.2 °F 26.6 °F 93% 30.33 in 2.5 mi East 5.8 mph - 0.00 in   Light Freezing Drizzle
11:56 PM 28.0 °F 22.8 °F 26.1 °F 92% 30.35 in 2.0 mi East 4.6 mph - 0.00 in   Light Freezing Drizzle